SCP
0 0 0 0 0 0 0 0 0 0 0 0 0 0 0 0 0 0 0 0 0 0 0 0 0 0 0 0 0 0 0 0 0 0 0 0 0 0 0 0 0 0 0
0 0 0 0 0 0 0 0 0 0 0 0 0 0 0 0 0 0 0 0 0 0 0 0 0 0 0 0 0 0 0 0 0 0 0 0 0 0 0 0 0 0 0
0 0 0 0 0 0 0 0 0 0 0 0 0 0 0 0 0 0 0 0 0 0 0 0 0 0 0 0 0 0 0 0 0 0 0 0 0 0 0 0 0 0 0
0 0 0 0 0 0 0 0 0 0 0 0 0 0 0 0 0 0 0 0 0 0 0 0 0 0 0 0 0 0 0 0 0 0 0 0 0 0 0 0 0 1 1
0 0 0 0 0 0 0 0 0 0 0 0 0 0 0 0 0 0 0 0 0 0 0 0 0 0 0 0 0 0 0 0 0 0 0 0 0 0 0 0 0 0 1
0 0 0 0 0 0 0 0 0 0 0 0 0 0 0 0 0 0 0 0 0 0 0 0 0 0 0 0 0 0 0 0 0 0 0 0 0 0 0 0 0 0 0
0 0 0 0 0 0 0 0 0 0 0 0 0 0 0 0 0 0 0 0 0 0 0 0 0 0 0 0 0 0 0 0 0 0 0 0 0 0 0 0 0 0 0
0 0 0 0 0 0 0 0 0 0 0 0 0 0 0 0 0 0 0 0 0 0 0 0 0 0 0 0 0 0 0 0 0 0 0 0 0 0 0 0 0 0 0
0 0 0 0 0 0 0 0 0 0 0 0 0 0 0 0 0 0 0 0 0 0 0 0 0 0 0 0 0 0 0 0 0 0 0 0 0 0 0 0 0 0 0
0 0 0 0 0 0 0 0 0 0 0 0 0 0 0 0 0 0 0 0 0 0 0 0 0 0 0 0 0 0 0 0 0 0 0 0 0 0 0 0 0 1 1
0 0 0 0 0 0 0 0 0 0 0 0 0 0 0 0 0 0 0 0 0 0 0 0 0 0 0 0 0 0 0 0 0 0 0 0 0 0 0 0 1 1 1
0 0 0 0 0 0 0 0 0 0 0 0 0 0 0 0 0 0 0 0 0 0 0 0 0 0 0 0 0 0 0 0 0 0 0 0 0 0 0 0 1 1 1
0 0 0 0 0 0 0 0 0 0 0 0 0 0 0 0 0 0 0 0 0 0 0 0 0 0 0 0 0 0 0 0 0 0 0 0 0 0 0 0 0 1 1
0 0 0 0 0 0 0 0 0 0 0 0 0 0 0 0 0 0 0 0 0 0 0 0 0 0 0 0 0 0 0 0 0 0 0 0 0 0 0 0 0 0 0
0 0 0 0 0 0 0 0 0 0 0 0 0 0 0 0 0 1 1 1 1 0 0 0 0 0 0 0 0 0 0 0 0 0 0 0 0 0 0 0 0 0 0
0 0 0 0 0 0 0 0 0 0 0 0 0 0 0 1 1 1 1 1 1 1 1 0 0 0 0 0 0 0 0 0 0 0 0 0 0 0 0 0 0 0 0
0 0 0 0 0 0 0 0 1 1 0 0 0 0 1 1 1 1 1 1 1 1 1 1 0 0 0 0 0 0 0 0 0 0 0 0 0 0 0 0 0 0 0
0 0 0 0 0 0 0 0 0 1 1 1 0 0 0 0 0 0 0 0 1 1 1 1 1 1 1 0 0 0 0 0 0 0 0 0 0 0 0 0 0 0 0
0 0 0 0 0 0 0 0 0 0 0 0 0 0 0 0 0 0 0 0 0 1 1 1 1 1 1 0 0 0 0 0 0 0 0 0 0 0 0 0 0 0 0
0 0 0 0 0 0 0 0 0 0 0 0 0 0 0 0 0 0 0 0 0 0 1 1 1 1 0 0 0 0 0 0 0 0 0 0 0 0 0 0 0 0 0
0 0 0 0 0 0 0 0 0 0 0 0 0 0 0 0 0 0 0 0 0 0 0 0 1 1 0 0 0 0 0 0 0 0 0 0 0 0 0 0 0 0 0
0 0 0 0 0 0 0 0 0 0 0 0 0 0 0 0 0 0 0 0 0 0 0 0 0 1 0 0 0 0 0 0 0 0 0 0 0 0 0 0 0 0 0
0 0 0 0 0 0 0 0 0 0 0 0 0 0 0 0 0 0 0 0 0 0 0 0 0 0 0 0 0 0 0 0 0 0 0 0 0 0 0 0 0 0 0
0 0 0 0 0 0 0 0 0 0 0 0 0 0 0 0 0 0 0 0 0 0 0 0 0 0 0 0 0 0 0 0 0 0 0 0 0 0 0 0 0 0 0
0 0 0 0 0 0 0 0 0 0 0 0 0 0 0 0 0 0 0 0 0 0 0 0 0 0 0 0 0 0 0 0 0 0 0 0 0 0 0 0 0 0 0
0 0 0 0 0 0 0 0 0 0 0 0 0 0 0 0 0 0 0 0 0 0 0 0 0 0 0 0 0 0 0 0 0 0 0 0 0 0 0 0 0 0 0
Wind_Speed
5 5 4 4 4 4 4 4 4 5 5 5 5 6 6 6 6 5 4 9 12 14 16 17 17 17 17 17 17 17 18 18 17 17 17 18 18 18 18 18 18 18 18
6 5 5 5 5 5 5 5 5 5 5 4 6 6 6 6 6 6 6 7 11 14 16 18 18 18 18 18 18 18 18 19 18 17 17 18 18 19 19 19 19 19 19
7 6 5 5 5 5 5 4 5 4 4 4 6 6 6 6 6 7 6 5 6 10 14 17 18 18 18 19 19 19 18 18 18 17 17 17 18 19 19 20 20 20 20
7 6 5 5 5 4 4 4 4 4 4 4 5 5 5 5 6 7 6 6 5 6 8 13 16 18 18 19 19 19 19 19 18 18 17 17 18 19 19 20 20 21 21
7 6 5 5 5 4 5 5 4 4 4 5 5 5 5 5 6 6 7 8 7 7 6 8 12 13 17 19 19 19 19 18 18 17 17 17 17 18 19 19 20 21 22
7 7 5 5 5 4 5 5 5 4 4 4 4 5 5 6 6 6 8 7 6 7 6 7 6 7 12 16 18 18 18 18 18 17 17 17 18 18 19 19 20 21 22
7 7 6 5 6 6 6 6 5 5 5 2 3 4 5 7 7 7 6 6 6 6 6 6 5 5 5 11 15 17 17 18 18 17 17 17 18 18 19 20 20 21 21
7 7 7 6 6 6 6 6 5 4 4 3 3 2 4 4 4 5 5 5 6 4 5 6 6 6 5 4 7 14 17 18 18 18 18 17 18 18 19 20 20 20 21
7 7 8 7 6 6 6 7 6 7 6 4 4 4 3 4 4 3 3 4 4 4 5 5 6 6 6 5 6 9 14 16 18 18 18 18 18 18 19 19 20 20 21
7 7 7 7 7 6 6 6 6 6 6 5 4 5 5 3 3 4 3 3 4 5 5 5 5 6 6 5 7 10 12 14 15 16 17 18 18 19 19 20 20 20 20
6 6 6 6 7 6 6 6 6 6 6 6 5 3 5 5 6 6 7 5 4 4 4 5 5 5 5 5 5 8 11 12 13 14 15 16 18 19 19 20 20 20 20
4 5 6 6 6 6 6 7 6 7 6 7 6 5 4 4 5 6 8 6 6 5 5 4 4 4 4 5 6 10 11 12 13 14 14 15 16 17 18 19 19 19 20
4 5 5 6 6 6 6 6 6 6 7 7 7 6 6 6 4 4 7 7 6 5 4 3 4 4 4 4 5 10 10 12 13 13 13 13 14 15 16 17 18 18 19
4 4 5 5 6 6 6 6 5 6 5 6 7 7 6 5 5 5 5 5 7 5 4 5 3 3 3 4 6 9 7 11 12 12 13 13 13 13 14 15 16 17 17
2 2 3 3 4 4 5 5 5 6 5 6 6 6 6 5 4 4 4 4 6 8 7 4 3 2 3 3 6 5 6 9 11 11 12 12 12 13 13 14 15 16 16
2 2 2 2 2 3 3 4 4 4 4 4 3 3 4 3 3 3 3 4 4 6 8 3 3 3 3 4 6 5 6 10 10 11 11 12 12 13 13 14 15 15 16
2 2 2 2 2 2 2 2 2 2 3 3 3 3 4 3 3 3 3 3 4 5 8 6 3 3 4 5 5 5 5 5 6 9 11 11 12 12 13 13 14 14 15
2 2 2 2 2 2 2 2 2 2 3 3 3 3 4 3 3 3 2 3 3 4 6 9 5 4 5 5 5 6 5 5 5 9 11 12 12 12 12 12 13 13 14
1 1 1 2 2 2 2 2 3 3 3 3 3 3 3 3 3 3 3 3 3 4 4 6 7 4 4 3 5 5 5 5 5 7 9 10 11 12 12 12 13 13 13
2 1 1 2 2 2 2 2 2 2 2 2 2 2 2 2 3 3 3 3 3 4 4 5 6 5 4 4 3 5 6 4 5 5 7 8 9 11 11 12 13 13 14
1 1 1 1 1 1 1 1 2 2 2 2 2 1 1 1 2 2 2 3 3 3 4 4 5 5 4 4 4 4 6 7 6 3 5 5 6 6 6 9 10 12 14
1 1 1 2 1 1 1 1 1 1 1 1 1 1 0 0 2 3 3 3 3 4 4 5 4 5 6 5 5 5 6 6 7 3 5 7 4 6 6 5 11 14 14
1 1 1 2 1 1 1 2 1 1 1 1 1 1 1 1 1 2 3 3 3 4 5 5 6 6 6 5 6 6 6 6 8 6 6 8 5 6 6 7 13 14 14
2 2 2 2 1 1 2 2 2 2 1 1 1 0 1 1 2 3 2 3 3 3 4 3 4 5 5 5 5 6 7 7 7 5 4 6 5 6 6 6 10 12 12
1 1 1 2 2 1 2 2 3 1 1 1 1 1 1 1 4 4 3 3 4 4 5 6 6 7 8 9 7 4 4 5 6 5 2 4 5 7 7 5 6 10 12
2 2 2 1 1 1 2 3 3 1 1 1 1 1 2 3 4 5 3 2 3 4 4 5 5 6 6 6 7 4 3 4 5 6 3 3 4 5 7 5 4 5 6
Wind_Direction
203 203 205 203 204 202 204 213 221 229 237 244 245 246 249 247 249 247 255 257 259 264 271 275 277 278 276 274 273 270 267 265 263 261 259 258 258 257 256 257 256 256 255
201 201 204 205 208 206 208 212 217 224 233 238 248 248 248 248 249 249 250 257 258 261 268 274 277 279 279 279 278 276 273 270 266 263 260 259 258 258 257 257 257 257 257
201 201 203 207 209 207 208 213 222 224 235 241 249 252 252 251 253 254 255 254 257 259 261 268 274 278 280 282 282 281 279 277 275 271 267 264 262 261 260 258 257 257 257
201 200 206 212 204 199 204 211 216 222 235 241 249 254 253 255 257 257 257 257 255 259 261 264 268 273 277 280 282 283 282 281 280 277 275 273 271 269 266 263 261 259 258
204 203 210 213 203 206 210 215 216 213 231 243 250 255 254 254 256 258 261 260 257 256 256 264 262 265 272 277 280 282 283 283 283 281 279 277 275 275 274 271 268 264 262
207 208 214 214 207 212 218 217 222 220 226 238 254 261 258 256 254 255 260 262 260 258 257 260 263 266 266 272 277 280 282 283 283 283 282 280 278 277 275 274 273 271 268
208 210 217 214 210 217 221 217 217 226 233 223 251 277 271 256 255 255 254 256 261 262 261 259 258 259 267 270 273 277 280 283 285 285 284 283 281 280 279 278 277 275 273
210 210 214 217 215 219 222 219 213 221 227 196 208 255 294 305 281 256 252 249 257 261 260 258 255 255 257 260 269 274 279 283 286 287 288 287 286 285 284 282 281 279 277
213 213 215 216 217 219 226 223 217 219 229 219 206 206 235 260 300 289 260 252 255 258 261 261 259 258 257 256 263 272 274 278 283 287 288 289 289 289 288 287 285 283 281
214 215 217 218 220 221 226 226 220 221 222 230 222 222 227 216 252 296 291 272 265 261 263 265 265 264 263 261 263 268 274 277 280 283 285 286 289 289 289 288 288 287 284
213 215 216 217 221 222 225 226 224 223 223 228 225 219 232 236 233 253 277 283 282 261 257 258 261 267 271 270 270 276 276 278 279 279 281 283 286 288 289 289 289 287 285
216 218 218 220 223 224 225 226 226 227 228 229 230 224 217 225 229 237 258 269 273 270 263 255 257 262 267 270 273 281 281 283 283 282 282 283 284 287 288 289 289 288 287
221 225 220 222 224 226 226 223 223 228 230 232 233 236 235 236 232 237 254 268 272 273 265 256 248 254 269 274 281 286 285 287 288 287 286 286 288 288 288 289 289 290 290
221 225 219 222 225 225 227 225 225 229 231 233 238 239 243 244 239 238 244 262 277 272 258 259 267 256 268 276 287 294 292 292 291 290 291 290 291 292 293 292 292 292 291
209 210 211 219 227 229 230 227 228 231 231 234 240 243 246 250 246 245 244 241 256 276 276 258 263 282 284 284 299 297 292 297 296 297 296 293 294 296 295 295 295 295 296
191 187 199 208 219 228 231 226 230 234 231 237 239 245 250 256 256 252 251 251 246 261 273 266 258 280 296 304 305 296 291 300 297 300 301 301 302 301 299 298 298 299 298
181 188 195 199 207 217 219 217 227 229 228 240 244 245 255 259 259 260 256 254 254 255 268 278 265 278 285 297 305 300 298 299 303 305 306 306 305 303 302 300 300 301 300
191 195 188 186 203 214 206 203 216 225 232 241 247 247 258 261 258 263 262 264 265 263 268 280 286 282 278 288 295 298 306 305 299 305 305 306 305 304 303 303 303 303 302
187 193 186 197 211 213 206 210 211 218 228 239 245 248 255 254 260 264 265 266 270 275 268 273 282 283 280 296 305 302 299 295 298 298 299 301 302 304 305 307 306 303 301
177 188 203 216 222 217 214 214 211 214 222 234 236 235 240 243 254 267 270 274 281 282 279 276 280 289 291 306 312 306 309 306 301 304 303 304 303 302 301 303 302 300 299
173 175 176 204 217 203 202 210 217 215 222 233 236 235 241 262 276 276 279 279 282 279 284 284 286 293 297 314 312 309 303 309 299 292 305 302 301 298 298 299 297 297 297
153 150 164 172 174 180 92 119 157 187 204 217 244 267 293 325 341 333 314 305 295 284 284 283 284 287 292 299 306 307 305 309 303 313 319 302 300 293 293 290 298 301 300
157 159 157 152 154 118 94 92 81 153 159 192 228 276 323 346 319 305 314 321 317 306 289 276 278 282 292 299 304 303 298 293 285 299 313 294 298 293 297 299 301 302 306
175 171 162 157 149 103 89 93 99 115 112 94 57 2 329 336 342 338 322 322 329 339 325 307 286 292 300 306 300 294 294 293 284 279 273 281 296 295 301 298 301 306 309
172 158 148 144 146 109 76 83 86 105 97 64 42 33 13 334 349 357 347 335 335 335 349 344 330 322 322 324 321 315 309 307 297 292 270 274 292 303 299 291 298 312 317
173 150 129 116 129 115 83 91 93 111 98 48 23 25 14 358 355 1 349 326 318 324 333 337 338 333 327 322 325 317 306 299 296 292 296 301 295 317 305 291 302 316 315